ヤーン彗星

458P/Jahn (2015)

English version
Home page
Updated on April 22, 2023

---------------------------------------------------------------------

・ プロフィール

符号 458P/2016 C3

・ 軌道要素

                    Epoch = 2015 Apr.  8.0 TT
     T = 2015 Mar. 29.42896 TT        Peri. = 104.97186
     e = 0.3107893                    Node  =   1.86031 2000.0
     q = 2.6726243 AU                 Incl. =  13.58997
       a =  3.8778041 AU   n = 0.12906999   P =   7.64 years

---------------------------------------------------------------------

軌道要素は、CBET 5237に掲載されたものです。
光度グラフはComet for Windowsで作成したものです。

---------------------------------------------------------------------

Copyright(C) Seiichi Yoshida (comet@aerith.net). All rights reserved.